SCP
0 0 0 0 0 0 0 0 0 0 0 0 0 -0 0 0 0 0 0 0 -0 -0 -0 -0 -0 -0 -0 -0 0 0 -0 -0 -0 -0 -0 -0 -0 -0
0 0 0 0 0 0 0 0 0 0 0 0 0 0 0 0 0 0 0 0 0 -0 -0 -0 -0 -0 -0 -0 -0 -0 -0 -0 0 -0 -0 -0 -0 -0
0 0 0 0 0 0 0 0 0 0 0 0 0 0 0 0 0 0 0 0 0 -0 -0 -0 -0 -0 -0 -0 -0 -0 -0 -0 -0 0 0 0 0 0
0 0 0 0 0 0 0 0 0 0 0 0 0 0 0 0 0 -0 -0 -0 0 -0 -0 -0 0 0 0 0 0 0 0 0 0 0 0 0 0 0
0 0 0 0 0 0 0 0 0 0 0 0 0 0 0 0 -0 -0 -0 -0 -0 -0 -0 -0 -0 -0 -0 -0 -0 0 0 0 0 0 0 0 0 0
0 0 0 0 0 0 0 0 0 0 0 0 0 0 0 -0 -0 -0 -0 -0 0 0 -0 -0 -0 -0 0 0 0 0 0 0 0 0 0 0 0 0
0 0 0 0 0 0 0 0 0 0 0 0 0 0 0 -0 -0 -0 -0 -0 -0 -0 -0 -0 0 0 0 0 0 -0 -0 -0 0 0 0 0 0 0
0 0 0 0 0 0 0 0 0 0 0 0 0 0 0 0 0 -0 -0 -0 -0 -0 0 0 0 0 0 0 -0 -0 -0 -0 -0 -0 0 0 0 0
0 0 0 0 0 0 0 0 0 0 0 0 0 0 0 0 0 0 0 0 0 0 0 0 0 0 0 0 0 0 0 0 0 0 0 0 0 0
0 0 0 0 0 0 0 0 0 0 0 0 0 0 0 0 0 0 0 0 0 0 0 0 0 0 0 0 0 0 0 0 0 0 0 0 0 0
0 0 0 0 0 0 0 0 0 0 0 0 0 0 0 0 0 0 0 0 0 0 0 0 0 0 0 0 0 0 0 -0 0 0 0 0 0 0
0 0 0 0 0 0 0 0 0 0 0 0 0 0 0 0 0 0 0 0 0 0 0 0 0 0 0 0 0 0 0 0 0 0 0 0 0 0
0 0 0 0 0 0 0 0 0 0 0 0 0 0 0 0 0 0 0 0 0 0 0 0 0 0 0 0 0 0 0 0 0 0 0 0 0 0
0 0 0 0 0 0 0 0 0 0 0 0 0 0 0 0 0 0 0 0 0 0 0 0 0 0 0 0 0 0 0 0 0 0 0 0 0 0
0 0 0 0 0 0 0 0 0 0 0 0 0 0 0 0 0 0 0 0 0 0 0 0 0 0 0 0 0 0 0 0 0 0 0 0 0 0
0 0 0 0 0 0 0 0 0 0 0 0 0 0 0 0 0 0 0 0 0 0 0 0 0 0 0 0 0 0 0 0 0 0 0 0 0 0
0 0 0 0 0 0 0 0 0 0 0 0 0 0 0 0 0 0 0 0 0 0 0 0 0 0 0 0 0 0 0 0 0 0 0 0 0 0
0 0 0 0 0 0 0 0 0 0 0 0 0 0 0 0 0 0 0 0 0 0 0 0 0 0 0 0 0 0 0 0 0 0 0 0 0 0
0 0 0 0 0 0 0 0 0 0 0 0 0 0 0 0 0 0 0 0 0 0 0 0 0 0 0 0 0 0 0 0 0 0 0 0 0 0
0 0 0 0 0 0 0 0 0 0 0 0 0 0 0 0 0 0 0 0 0 0 0 0 0 0 0 0 0 0 0 0 0 0 0 0 0 0
0 0 0 0 0 0 0 0 0 0 0 0 0 0 0 0 0 0 0 0 0 0 0 0 0 0 0 0 0 0 0 0 0 0 0 0 0 0
0 0 0 0 0 0 0 0 0 0 0 0 0 0 0 0 0 0 0 0 0 0 0 0 0 0 0 0 0 0 0 0 0 0 0 0 0 -0
0 0 0 0 0 0 0 0 0 0 0 0 0 0 0 0 0 0 0 0 0 0 0 0 0 0 0 0 0 0 0 0 0 -0 0 0 -0 -0
Wind_Speed_500mb
69 62 58 53 48 45 42 40 37 29 30 24 25 30 39 45 51 56 60 61 61 62 63 64 65 65 66 69 73 75 73 73 72 73 71 68 67 64
74 70 64 59 53 50 46 43 40 38 34 32 32 38 38 44 48 55 57 60 60 63 65 67 68 68 70 72 73 77 79 81 80 81 83 83 82 80
81 78 71 65 59 54 50 46 44 45 44 43 39 35 38 42 46 54 57 60 63 64 65 67 69 72 75 78 79 80 81 83 86 89 89 91 91 93
88 85 79 71 64 59 54 50 47 48 47 43 42 42 41 47 54 58 62 63 64 63 65 67 69 70 76 79 78 79 81 84 86 90 92 93 97 96
93 90 82 77 71 64 59 54 51 50 48 49 45 40 44 47 52 59 66 72 73 75 73 70 69 75 82 84 80 81 83 86 87 87 92 95 97 99
95 92 88 82 75 67 62 58 55 52 49 48 43 40 45 46 55 65 69 69 77 75 66 80 89 91 91 91 88 88 90 90 91 92 90 93 100 101
100 97 92 86 76 70 67 62 57 53 50 47 40 41 44 48 54 60 69 76 80 67 76 93 95 100 101 102 100 99 98 97 97 95 89 88 89 85
106 102 96 87 81 76 70 64 59 54 50 46 39 40 42 45 48 56 63 71 79 69 91 96 91 103 103 102 101 105 103 93 86 88 91 91 92 93
111 106 100 92 84 77 72 66 61 58 53 45 40 37 40 39 46 49 56 63 71 81 89 107 95 104 97 105 105 105 109 101 85 85 87 92 95 96
114 108 102 93 84 79 71 68 61 51 47 39 35 33 36 36 40 45 52 63 71 73 72 104 95 103 110 113 107 104 105 104 88 85 89 95 98 98
110 103 94 89 81 76 72 70 62 55 45 36 37 34 29 30 34 42 48 60 74 78 75 68 94 109 119 119 108 108 112 98 78 81 81 91 95 98
105 102 93 85 76 77 75 69 63 54 42 36 33 28 30 31 32 37 47 55 60 73 50 64 90 88 86 108 114 120 114 105 87 85 87 90 93 90
107 102 94 85 79 73 72 66 56 43 39 37 30 27 28 31 32 36 40 50 57 66 68 62 83 84 75 108 127 126 118 115 104 92 88 84 81 88
96 95 87 85 76 76 61 54 44 37 40 30 28 27 29 32 33 38 43 48 53 64 66 58 74 79 90 104 111 133 116 113 102 100 93 89 81 79
91 82 80 76 73 58 51 50 51 46 35 32 29 29 31 33 34 39 44 48 57 60 62 62 67 78 80 98 110 128 114 126 109 84 76 80 81 93
70 74 75 77 76 62 59 59 50 44 37 34 33 30 30 32 33 38 48 53 67 70 70 69 69 72 88 95 96 127 128 108 123 105 100 102 99 100
75 74 77 80 75 70 66 59 52 43 40 35 30 28 28 33 35 39 47 56 66 76 84 80 79 82 88 91 105 118 125 128 116 115 97 106 106 102
74 88 93 87 83 75 63 58 48 44 37 30 27 26 27 32 39 44 51 59 68 75 83 85 91 93 97 104 71 102 108 108 115 106 96 100 113 96
83 91 93 87 82 67 59 54 48 39 33 28 26 26 28 32 39 48 56 63 70 78 82 85 90 79 83 95 120 69 93 111 113 115 102 100 112 113
92 85 89 85 72 65 62 55 44 35 30 26 25 25 28 34 41 50 58 64 71 81 92 92 87 82 73 98 121 139 86 99 104 111 106 102 109 109
93 81 78 72 68 63 57 49 40 34 28 24 23 23 28 37 44 53 61 65 70 77 95 99 95 94 95 96 103 118 114 94 93 104 109 103 104 101
83 78 73 68 62 56 49 42 35 30 25 22 22 25 27 34 45 56 62 68 72 84 96 101 103 103 94 83 104 117 131 118 103 93 90 95 107 104
73 67 69 62 55 50 41 35 30 26 22 22 22 24 27 35 44 54 61 67 80 94 95 105 108 102 93 90 97 113 119 121 113 107 103 83 85 99
Wind_Direction_500mb
238 239 243 246 248 250 253 257 258 260 278 288 299 312 320 321 325 327 327 326 326 329 326 324 324 324 321 317 314 312 310 306 303 301 298 295 291 288
238 238 240 245 248 251 253 255 260 256 253 269 276 293 305 311 316 319 320 321 323 323 324 326 327 324 319 317 315 314 312 307 303 299 297 295 291 289
237 238 240 243 245 249 252 255 258 260 262 265 271 283 292 302 309 312 315 318 317 319 321 323 322 322 321 319 318 319 314 308 303 298 294 290 287 285
237 236 237 238 241 246 249 252 254 258 264 272 281 292 306 318 321 322 324 324 319 317 318 320 319 317 313 315 320 316 310 307 303 298 294 288 285 281
237 236 236 237 240 242 245 248 251 254 261 269 282 297 311 317 321 325 326 327 327 329 332 328 324 321 320 321 320 315 310 306 302 297 291 287 285 283
235 235 235 235 237 240 242 245 246 250 257 268 280 295 310 318 325 326 321 323 324 325 331 327 329 328 327 325 323 318 312 308 304 299 291 283 282 280
232 232 233 233 235 236 238 240 244 248 256 262 277 295 304 318 323 323 320 323 322 330 329 326 329 326 328 325 322 319 318 314 307 300 292 286 282 281
231 230 231 231 232 234 237 238 243 248 254 261 274 292 303 314 317 319 321 325 325 329 327 323 327 323 326 322 319 320 316 307 292 288 285 282 279 278
229 228 228 229 229 231 236 238 239 243 248 262 278 291 297 308 312 312 316 319 317 324 324 317 325 321 322 316 317 318 315 310 296 290 284 279 276 273
231 229 227 226 226 229 231 233 235 238 246 257 274 282 290 299 312 315 314 311 312 316 321 312 324 321 319 315 317 316 313 310 302 289 282 279 276 272
228 228 227 227 226 227 229 231 230 234 238 249 265 281 296 295 299 303 311 309 313 316 322 313 325 323 318 317 320 321 314 310 299 293 286 281 276 272
224 224 226 225 224 227 227 227 230 233 232 244 256 267 277 287 294 300 305 306 310 315 315 314 319 323 317 315 316 319 314 308 297 292 288 282 271 271
223 221 221 223 220 224 230 228 232 233 235 242 247 259 272 283 292 297 300 303 308 304 316 313 313 318 302 304 318 322 310 305 300 294 290 286 276 265
226 225 225 221 219 223 217 225 224 229 238 242 250 262 275 284 291 298 303 305 307 305 311 309 307 311 306 297 298 319 304 298 294 291 288 288 278 269
225 226 222 218 224 204 207 212 226 233 232 241 253 264 275 287 296 302 303 308 306 308 315 320 317 317 304 290 291 299 300 302 294 292 293 288 279 269
221 223 220 212 209 209 209 221 226 224 231 241 250 264 276 288 299 307 312 318 312 315 319 324 326 321 305 292 293 297 299 289 295 289 287 282 277 272
217 210 201 202 203 210 214 217 218 225 233 242 253 267 283 296 304 312 319 317 314 318 320 327 330 321 308 293 293 292 291 292 290 290 287 282 277 273
208 205 204 205 208 210 208 210 213 222 231 241 255 271 287 301 311 320 321 319 319 322 322 328 328 322 317 311 290 291 290 288 290 289 284 280 280 277
208 206 209 210 210 204 202 209 215 222 232 243 257 272 290 303 316 322 323 323 323 324 323 323 326 318 305 300 313 297 294 293 292 289 283 278 276 277
209 211 211 210 207 197 200 206 210 217 230 245 261 281 298 309 319 324 325 327 327 327 324 324 325 319 301 296 299 305 300 294 293 289 287 283 278 278
202 210 216 211 200 199 201 201 206 214 225 242 265 285 305 312 322 327 328 329 331 325 321 322 325 329 318 308 298 299 303 299 295 291 289 284 278 276
201 209 208 202 198 199 199 202 205 212 225 245 267 284 299 309 323 329 329 329 332 324 323 325 330 330 320 307 300 303 306 307 305 300 289 276 270 266
207 206 197 192 195 199 200 206 210 217 231 250 267 282 298 311 326 328 327 332 333 330 329 326 330 330 317 311 306 306 307 309 313 311 302 296 277 265
Wind_Speed_850mb
69 62 58 53 48 45 42 40 37 29 30 24 25 30 39 45 51 56 60 61 61 62 63 64 65 65 66 69 73 75 73 73 72 73 71 68 67 64
74 70 64 59 53 50 46 43 40 38 34 32 32 38 38 44 48 55 57 60 60 63 65 67 68 68 70 72 73 77 79 81 80 81 83 83 82 80
81 78 71 65 59 54 50 46 44 45 44 43 39 35 38 42 46 54 57 60 63 64 65 67 69 72 75 78 79 80 81 83 86 89 89 91 91 93
88 85 79 71 64 59 54 50 47 48 47 43 42 42 41 47 54 58 62 63 64 63 65 67 69 70 76 79 78 79 81 84 86 90 92 93 97 96
93 90 82 77 71 64 59 54 51 50 48 49 45 40 44 47 52 59 66 72 73 75 73 70 69 75 82 84 80 81 83 86 87 87 92 95 97 99
95 92 88 82 75 67 62 58 55 52 49 48 43 40 45 46 55 65 69 69 77 75 66 80 89 91 91 91 88 88 90 90 91 92 90 93 100 101
100 97 92 86 76 70 67 62 57 53 50 47 40 41 44 48 54 60 69 76 80 67 76 93 95 100 101 102 100 99 98 97 97 95 89 88 89 85
106 102 96 87 81 76 70 64 59 54 50 46 39 40 42 45 48 56 63 71 79 69 91 96 91 103 103 102 101 105 103 93 86 88 91 91 92 93
111 106 100 92 84 77 72 66 61 58 53 45 40 37 40 39 46 49 56 63 71 81 89 107 95 104 97 105 105 105 109 101 85 85 87 92 95 96
114 108 102 93 84 79 71 68 61 51 47 39 35 33 36 36 40 45 52 63 71 73 72 104 95 103 110 113 107 104 105 104 88 85 89 95 98 98
110 103 94 89 81 76 72 70 62 55 45 36 37 34 29 30 34 42 48 60 74 78 75 68 94 109 119 119 108 108 112 98 78 81 81 91 95 98
105 102 93 85 76 77 75 69 63 54 42 36 33 28 30 31 32 37 47 55 60 73 50 64 90 88 86 108 114 120 114 105 87 85 87 90 93 90
107 102 94 85 79 73 72 66 56 43 39 37 30 27 28 31 32 36 40 50 57 66 68 62 83 84 75 108 127 126 118 115 104 92 88 84 81 88
96 95 87 85 76 76 61 54 44 37 40 30 28 27 29 32 33 38 43 48 53 64 66 58 74 79 90 104 111 133 116 113 102 100 93 89 81 79
91 82 80 76 73 58 51 50 51 46 35 32 29 29 31 33 34 39 44 48 57 60 62 62 67 78 80 98 110 128 114 126 109 84 76 80 81 93
70 74 75 77 76 62 59 59 50 44 37 34 33 30 30 32 33 38 48 53 67 70 70 69 69 72 88 95 96 127 128 108 123 105 100 102 99 100
75 74 77 80 75 70 66 59 52 43 40 35 30 28 28 33 35 39 47 56 66 76 84 80 79 82 88 91 105 118 125 128 116 115 97 106 106 102
74 88 93 87 83 75 63 58 48 44 37 30 27 26 27 32 39 44 51 59 68 75 83 85 91 93 97 104 71 102 108 108 115 106 96 100 113 96
83 91 93 87 82 67 59 54 48 39 33 28 26 26 28 32 39 48 56 63 70 78 82 85 90 79 83 95 120 69 93 111 113 115 102 100 112 113
92 85 89 85 72 65 62 55 44 35 30 26 25 25 28 34 41 50 58 64 71 81 92 92 87 82 73 98 121 139 86 99 104 111 106 102 109 109
93 81 78 72 68 63 57 49 40 34 28 24 23 23 28 37 44 53 61 65 70 77 95 99 95 94 95 96 103 118 114 94 93 104 109 103 104 101
83 78 73 68 62 56 49 42 35 30 25 22 22 25 27 34 45 56 62 68 72 84 96 101 103 103 94 83 104 117 131 118 103 93 90 95 107 104
73 67 69 62 55 50 41 35 30 26 22 22 22 24 27 35 44 54 61 67 80 94 95 105 108 102 93 90 97 113 119 121 113 107 103 83 85 99
Wind_Direction_850mb
238 239 243 246 248 250 253 257 258 260 278 288 299 312 320 321 325 327 327 326 326 329 326 324 324 324 321 317 314 312 310 306 303 301 298 295 291 288
238 238 240 245 248 251 253 255 260 256 253 269 276 293 305 311 316 319 320 321 323 323 324 326 327 324 319 317 315 314 312 307 303 299 297 295 291 289
237 238 240 243 245 249 252 255 258 260 262 265 271 283 292 302 309 312 315 318 317 319 321 323 322 322 321 319 318 319 314 308 303 298 294 290 287 285
237 236 237 238 241 246 249 252 254 258 264 272 281 292 306 318 321 322 324 324 319 317 318 320 319 317 313 315 320 316 310 307 303 298 294 288 285 281
237 236 236 237 240 242 245 248 251 254 261 269 282 297 311 317 321 325 326 327 327 329 332 328 324 321 320 321 320 315 310 306 302 297 291 287 285 283
235 235 235 235 237 240 242 245 246 250 257 268 280 295 310 318 325 326 321 323 324 325 331 327 329 328 327 325 323 318 312 308 304 299 291 283 282 280
232 232 233 233 235 236 238 240 244 248 256 262 277 295 304 318 323 323 320 323 322 330 329 326 329 326 328 325 322 319 318 314 307 300 292 286 282 281
231 230 231 231 232 234 237 238 243 248 254 261 274 292 303 314 317 319 321 325 325 329 327 323 327 323 326 322 319 320 316 307 292 288 285 282 279 278
229 228 228 229 229 231 236 238 239 243 248 262 278 291 297 308 312 312 316 319 317 324 324 317 325 321 322 316 317 318 315 310 296 290 284 279 276 273
231 229 227 226 226 229 231 233 235 238 246 257 274 282 290 299 312 315 314 311 312 316 321 312 324 321 319 315 317 316 313 310 302 289 282 279 276 272
228 228 227 227 226 227 229 231 230 234 238 249 265 281 296 295 299 303 311 309 313 316 322 313 325 323 318 317 320 321 314 310 299 293 286 281 276 272
224 224 226 225 224 227 227 227 230 233 232 244 256 267 277 287 294 300 305 306 310 315 315 314 319 323 317 315 316 319 314 308 297 292 288 282 271 271
223 221 221 223 220 224 230 228 232 233 235 242 247 259 272 283 292 297 300 303 308 304 316 313 313 318 302 304 318 322 310 305 300 294 290 286 276 265
226 225 225 221 219 223 217 225 224 229 238 242 250 262 275 284 291 298 303 305 307 305 311 309 307 311 306 297 298 319 304 298 294 291 288 288 278 269
225 226 222 218 224 204 207 212 226 233 232 241 253 264 275 287 296 302 303 308 306 308 315 320 317 317 304 290 291 299 300 302 294 292 293 288 279 269
221 223 220 212 209 209 209 221 226 224 231 241 250 264 276 288 299 307 312 318 312 315 319 324 326 321 305 292 293 297 299 289 295 289 287 282 277 272
217 210 201 202 203 210 214 217 218 225 233 242 253 267 283 296 304 312 319 317 314 318 320 327 330 321 308 293 293 292 291 292 290 290 287 282 277 273
208 205 204 205 208 210 208 210 213 222 231 241 255 271 287 301 311 320 321 319 319 322 322 328 328 322 317 311 290 291 290 288 290 289 284 280 280 277
208 206 209 210 210 204 202 209 215 222 232 243 257 272 290 303 316 322 323 323 323 324 323 323 326 318 305 300 313 297 294 293 292 289 283 278 276 277
209 211 211 210 207 197 200 206 210 217 230 245 261 281 298 309 319 324 325 327 327 327 324 324 325 319 301 296 299 305 300 294 293 289 287 283 278 278
202 210 216 211 200 199 201 201 206 214 225 242 265 285 305 312 322 327 328 329 331 325 321 322 325 329 318 308 298 299 303 299 295 291 289 284 278 276
201 209 208 202 198 199 199 202 205 212 225 245 267 284 299 309 323 329 329 329 332 324 323 325 330 330 320 307 300 303 306 307 305 300 289 276 270 266
207 206 197 192 195 199 200 206 210 217 231 250 267 282 298 311 326 328 327 332 333 330 329 326 330 330 317 311 306 306 307 309 313 311 302 296 277 265